Location: La Forest
(44.1209°N, 5.9554°E)
Time: 01:20:18
(UTC+00:00)

Daily predictions for brighter satellites

Satellite Brightness Start Highest point End
(mag) Time Altitude Azimuth Time Altitude Azimuth Time Altitude Azimuth
Cosmos 2082 Rocket 3.9 02:56:59 29° ENE 02:56:59 29° ENE 03:00:22 10° NE
Cosmos 1833 Rocket 4.3 03:15:04 28° NNE 03:15:04 28° NNE 03:17:37 10° NNE
SJ 16-02 3.9 03:20:41 15° SE 03:22:24 18° E 03:25:25 10° NE
SL-16 R/B 4.4 03:23:51 13° N 03:27:10 20° NE 03:31:13 10° E
ATLAS 5 CENTAUR R/B 4.4 03:26:39 51° NW 03:29:58 89° SW 04:08:44 10° SSE
Cosmos 1680 Rocket 4.2 03:34:13 51° E 03:34:13 51° E 03:38:53 10° SE
Cosmos 1980 Rocket 2.7 03:34:05 57° ENE 03:34:05 57° ENE 03:39:39 10° SE
Cosmos 2322 Rocket 4.4 03:33:12 11° N 03:37:02 20° NE 03:41:08 10° E
Lacrosse 5 2.5 03:54:20 48° NNE 03:54:20 48° NNE 03:58:06 10° NE
Cosmos 839 Rocket 4.0 03:57:11 53° SW 03:59:03 86° WNW 04:05:23 10° NNE
Cosmos 2058 3.8 03:58:43 27° SSE 04:00:40 49° E 04:04:45 10° NNE
CZ-2C R/B 2.5 03:56:39 10° NNE 04:01:33 72° ESE 04:02:52 47° S
ASTEX 1 3.6 04:00:08 10° SSE 04:05:02 69° E 04:10:01 10° N
SL-4 R/B 3.4 04:05:33 35° N 04:05:33 35° N 04:10:00 10° ENE
Cosmos 2360 4.1 04:09:39 64° SW 04:09:39 64° SW 04:15:05 10° SSE
Meteor 1-31 Rocket 4.1 04:06:42 10° NNE 04:09:00 34° NNE 04:09:00 34° NNE
Gbstr 26 Del rocket 3.3 04:13:10 52° ENE 04:13:10 52° ENE 04:16:04 10° ENE
Cosmos 1697 Rocket 4.0 04:16:10 25° SSW 04:16:10 25° SSW 04:18:40 10° S
Meteor 1-27 4.3 04:15:30 56° WSW 04:15:30 56° WSW 04:20:50 10° S
Cosmos 1356 Rocket 3.4 04:15:44 82° ENE 04:15:47 82° E 04:20:04 10° SSE
Cosmos 2278 4.1 04:16:55 43° SW 04:16:55 43° SW 04:21:18 10° S
Cosmos 1892 4.2 04:12:45 10° SSE 04:16:14 35° E 04:19:42 10° NNE
Cosmos 1076 Rocket 4.4 04:18:24 38° N 04:18:24 38° N 04:21:07 10° N
Cosmos 1484 Rocket 4.3 04:13:15 10° NNE 04:17:00 37° E 04:20:44 10° SSE
Cosmos 1898 Rocket 3.5 04:14:49 16° SSW 04:19:06 81° ESE 04:24:24 10° NNE
STARLINK-80 3.7 04:19:34 64° ESE 04:19:34 64° ESE 04:23:04 10° ENE
Meteor 2-2 Rocket 4.1 04:17:32 29° NNW 04:20:28 69° W 04:26:03 10° S
ATLAS 2AS CENTAUR R/B 3.6 04:14:58 16° NNW 04:20:57 49° NE 04:27:51 10° ESE
Cosmos 1869 3.7 04:23:16 52° S 04:23:16 52° S 04:26:17 10° S
Cosmos 1447 Rocket 4.4 04:19:12 10° N 04:25:33 76° W 04:31:52 10° S
Cosmos 967 Rocket 4.5 04:24:59 43° WSW 04:26:57 61° NW 04:33:20 10° NNE
ALOS 4.1 04:24:21 10° NNE 04:28:33 32° E 04:32:44 10° SSE
Cosmos 1937 Rocket 3.6 04:24:53 10° SSW 04:30:00 73° ESE 04:35:08 10° NNE
In-Cosmos 22 Rocket 4.1 04:32:23 10° S 04:37:43 82° E 04:43:14 10° NNE
Cosmos 2082 Rocket 2.7 04:38:53 37° WNW 04:39:15 37° NW 04:44:33 10° NNE
IDEFIX/ARIANE 42P 4.5 04:36:10 10° NNW 04:37:09 14° NNW 04:37:09 14° NNW
COSMOS 2455 3.1 04:35:58 16° NNW 04:40:55 68° NE 04:46:53 10° SE
Meteor 2-20 4.4 04:35:01 10° NNW 04:41:09 67° W 04:47:13 10° S
STARLINK-48 3.4 04:40:19 50° SW 04:41:16 81° SE 04:45:11 10° ENE
MSX 4.3 04:38:47 10° N 04:43:56 36° WNW 04:44:48 34° W
Cosmos 858 Rocket 4.3 04:40:14 10° SSW 04:45:25 80° WNW 04:50:39 10° NNE
COBE Rocket 3.9 04:40:34 10° S 04:45:42 68° W 04:50:47 10° NNW
USA 234 4.4 04:41:01 10° ENE 04:46:31 30° N 04:50:25 17° NW
CZ-4C R/B 4.2 04:45:15 13° NNW 04:46:57 14° N 04:50:26 10° NNE
Cosmos 1153 Rocket 4.4 04:41:32 10° SSW 04:47:34 58° WNW 04:53:37 10° N
Okean 3 Rocket 3.5 04:44:32 10° S 04:49:03 84° W 04:53:35 10° N
Cosmos 1766 Rocket 3.6 04:46:27 10° S 04:50:46 78° E 04:55:07 10° N
ATLAS CENTAUR R/B 3.2 04:46:20 10° S 04:50:52 39° ESE 04:55:21 10° NE
STARLINK-43 3.7 04:51:35 44° NW 04:51:59 46° NNW 04:55:36 10° NE
PSLV R/B 3.6 04:49:45 10° N 04:53:36 76° WNW 04:57:31 10° SSW
STARLINK-61 4.1 04:53:23 15° SW 04:56:30 56° SE 05:00:28 10° ENE
Cosmos 1833 Rocket 4.0 04:56:47 21° NW 04:56:47 21° NW 05:00:43 10° N
Cosmos 2173 Rocket 3.9 04:50:32 10° S 04:56:49 84° W 05:03:04 10° N
Cosmos 2151 2.9 04:54:11 10° SSW 04:58:29 79° W 05:02:49 10° N
COSMO-SKYMED 1 2.4 04:54:47 10° S 04:59:07 75° WSW 05:03:28 10° NNW
SJ 16-02 1.6 04:57:52 19° SW 05:00:38 43° WNW 05:04:51 10° N
H-2A R/B 4.1 05:02:07 10° NNW 05:04:14 19° NW 05:04:14 19° NW
Shenzhou-11 Module 2.1 05:06:37 41° SW 05:07:10 51° S 05:09:49 10° ESE
SL-16 R/B 2.1 05:06:15 10° NNW 05:11:57 79° WSW 05:17:36 10° SSE
STARLINK-59 4.5 05:07:58 10° SW 05:11:58 50° SE 05:15:59 10° ENE
Cosmos 2360 Rocket 3.1 05:06:37 10° NNW 05:12:07 48° ENE 05:17:35 10° SE
STARLINK-57 4.4 05:09:40 10° SW 05:13:41 52° SE 05:17:43 10° ENE
BREEZE-M DEB (TANK) 3.6 05:04:38 17° WNW 05:14:29 80° SSW 05:18:12 10° SE
STARLINK-28 4.3 05:12:54 10° SW 05:16:57 55° SE 05:21:00 10° ENE
Cosmos 372 Rocket 4.2 05:11:56 10° SSW 05:17:05 75° ESE 05:22:13 10° NNE
STARLINK-53 4.3 05:13:13 10° SW 05:17:16 55° SE 05:21:21 10° ENE
Cosmos 1980 Rocket 3.3 05:15:56 20° WNW 05:17:36 22° W 05:21:51 10° SSW
Cosmos 2298 Rocket 4.1 05:12:26 10° SSW 05:17:45 86° ESE 05:23:05 10° NNE
Lacrosse 5 rocket 3.4 05:16:24 10° NNW 05:18:29 14° NNE 05:20:34 10° NE
STARLINK-75 4.0 05:14:28 10° SW 05:18:33 63° SE 05:22:39 10° ENE
STARLINK-54 4.2 05:16:13 10° SW 05:20:17 59° SE 05:24:23 10° ENE
SL-27 R/B 4.3 05:21:59 14° NNW 05:21:59 14° NNW 05:22:56 10° NNW
Cosmos 2322 Rocket 2.2 05:16:04 10° NNW 05:21:44 77° WSW 05:27:24 10° SSE
COSMOS 2487 2.6 05:19:35 10° SSW 05:23:01 74° ESE 05:26:29 10° NNE
Cosmos 2228 Rocket 4.1 05:19:20 10° N 05:23:49 50° ENE 05:28:15 10° SSE
Helios 1A Rocket 2.8 05:19:52 10° NNE 05:24:00 81° WNW 05:28:03 10° SSW
STARLINK-37 4.0 05:20:11 10° SW 05:24:18 64° SE 05:28:26 10° ENE
Cosmos 1437 3.4 05:21:47 10° S 05:24:46 55° E 05:27:46 10° NNE
STARLINK-55 4.1 05:21:06 10° SW 05:25:11 63° SE 05:29:18 10° ENE
Okean O Rocket 1.5 05:20:54 10° NNE 05:25:16 82° WNW 05:29:36 10° SSW
STARLINK-24 4.0 05:22:02 10° SW 05:26:08 65° SE 05:30:16 10° ENE
STARLINK-34 4.0 05:22:48 10° SW 05:26:54 67° SE 05:31:01 10° ENE
STARLINK-81 4.1 05:24:18 10° SW 05:28:24 63° SE 05:32:30 10° ENE
Cosmos 2346 Rocket 4.4 05:24:17 10° N 05:30:25 83° W 05:36:27 10° S
Cosmos 1048 Rocket 4.4 05:25:01 10° NNW 05:30:25 68° ENE 05:35:44 10° SSE
STARLINK-77 4.0 05:27:34 10° SW 05:31:41 67° SE 05:35:48 10° ENE
NOSS 3-4 (A) 3.9 05:24:54 10° NW 05:31:59 87° NE 05:39:44 10° SE
USA 116 3.6 05:28:58 10° S 05:32:00 42° W 05:35:17 10° NNW
NOSS 3-4 (C) 3.9 05:25:01 10° NW 05:32:05 86° NE 05:39:50 10° SE
STARLINK-25 3.9 05:29:19 10° SW 05:33:26 69° SE 05:37:34 10° ENE
Abrixas rocket 3.2 05:30:47 10° SW 05:33:39 42° SSE 05:36:32 10° ENE
STARLINK-71 3.8 05:31:08 10° SW 05:35:17 78° SE 05:39:26 10° ENE
STARLINK-79 3.8 05:32:34 10° SW 05:36:42 73° SE 05:40:50 10° ENE
Lacrosse 5 3.2 05:33:34 14° WNW 05:36:47 24° NNW 05:40:54 10° NE
Cosmos 1408 2.9 05:33:33 10° SSW 05:37:05 42° WNW 05:40:37 10° N
SJ-7 4.5 05:33:36 10° NNE 05:37:49 88° ESE 05:41:56 10° SSW
STARLINK-78 3.8 05:34:15 10° SW 05:38:22 76° SE 05:42:31 10° ENE
CZ-2C R/B 3.9 05:36:24 10° NNW 05:39:08 15° WNW 05:41:51 10° W
STARLINK-49 3.7 05:37:34 10° SW 05:41:42 80° SE 05:45:52 10° ENE
Cosmos 1459 Rocket 4.4 05:36:01 10° SW 05:41:45 39° WNW 05:47:36 10° N
STARLINK-27 3.7 05:39:10 10° SW 05:43:19 82° SE 05:47:27 10° ENE
Cosmos 1782 4.5 05:40:21 10° N 05:44:04 36° ENE 05:47:44 10° SE
STARLINK-74 3.7 05:40:53 10° SW 05:45:02 84° SE 05:49:11 10° ENE
Cosmos 1725 Rocket 4.0 05:39:01 10° SSW 05:45:13 66° W 05:51:31 10° N
SL-4 R/B 2.5 05:41:10 11° WNW 05:45:50 75° NNE 05:50:37 10° ESE
STARLINK-39 3.7 05:42:33 10° SW 05:46:42 86° SE 05:50:52 10° ENE
Cosmos 2322 4.5 05:41:14 10° NNW 05:46:49 53° ENE 05:52:20 10° SE
Cosmos 1238 Rocket 4.2 05:41:30 10° S 05:48:09 86° E 05:54:19 10° N
STARLINK 3.6 05:44:10 10° SW 05:48:19 89° SE 05:52:28 10° NE
Cosmos 2016 Rocket 4.2 05:42:24 10° SSW 05:48:26 50° WNW 05:54:35 10° N
STARLINK-42 3.6 05:44:58 10° SW 05:49:07 87° NW 05:53:17 10° NE
STARLINK-21 3.6 05:45:45 10° SW 05:49:54 89° NNW 05:54:03 10° NE
Cosmos 1484 Rocket 4.2 05:48:17 10° NNW 05:51:09 19° WNW 05:54:01 10° WSW
Cosmos 1892 4.2 05:49:40 10° WSW 05:52:04 16° WNW 05:54:30 10° NNW
CZ-4B R/B 3.3 05:47:01 10° N 05:52:16 56° WNW 05:57:36 10° SSW
Cosmos 2333 Rocket 3.6 05:47:01 10° NNW 05:52:23 38° NE 05:57:42 10° ESE
Cosmos 1328 Rocket 4.3 05:48:59 10° NNW 05:52:49 31° W 05:56:36 10° SSW
Cosmos 1515 Rocket 3.7 05:48:45 10° NNW 05:52:58 50° W 05:57:09 10° S
Cosmos 1606 2.6 05:49:22 10° NNW 05:53:08 69° W 05:56:55 10° S
STARLINK-45 3.6 05:49:31 10° WSW 05:53:39 78° NNW 05:57:48 10° NE
Cosmos 1151 Rocket 3.7 05:50:13 10° NNW 05:54:09 33° W 05:58:02 10° SSW
FENGYUN 3A 4.0 05:49:20 10° N 05:54:30 45° WNW 05:59:36 10° SW
USA 267 4.2 05:48:08 10° ENE 05:54:32 53° SE 06:00:53 10° SSW
STARLINK-76 3.6 05:52:30 10° WSW 05:56:40 80° NNW 06:00:49 10° NE
Cosmos 1743 Rocket 3.5 05:52:33 10° SSW 05:56:51 61° W 06:01:09 10° N
STARLINK-80 4.4 05:54:26 10° W 05:57:52 30° NNW 06:01:19 10° NE
STARLINK 3.6 05:54:09 10° WSW 05:58:17 78° NW 06:02:27 10° NE
Cosmos 1400 Rocket 2.8 05:54:32 10° NNW 05:58:39 84° W 06:02:40 10° S
Gbstr 26 Del rocket 3.7 05:56:02 10° WNW 05:59:24 30° NNW 06:02:46 10° NE
STARLINK-32 3.6 05:55:51 10° WSW 06:00:00 76° NNW 06:04:10 10° NE
Meteor 1-26 Rocket 4.2 05:55:07 10° NNW 06:00:52 80° W 06:06:26 10° S
STARLINK-40 3.6 05:57:31 10° WSW 06:01:39 74° NNW 06:05:48 10° NE
STARLINK-44 3.6 05:59:13 10° WSW 06:03:21 73° NNW 06:07:30 10° NE
Tsikada Rocket 4.2 05:57:22 10° NNW 06:03:35 55° W 06:09:42 10° SSW
Cosmos 2219 Rocket 3.3 05:58:53 10° NNW 06:04:17 43° ENE 06:09:39 10° SE
STARLINK-36 3.6 06:00:53 10° WSW 06:05:01 71° NNW 06:09:10 10° NE
ALOS 3.1 06:01:54 10° N 06:05:53 28° WNW 06:09:51 10° SW
